Location: Unspecified
(41.8160°N, 0.0000°E)
Time: 04:52:58
(UTC+00:00)

Tiangong 2 - Visible Passes

Search period start: 21 May 2019 00:00
Search period end: 31 May 2019 00:00
Orbit: 379 x 387 km, 42.8° (Epoch: 20 May)

Date Brightness Start Highest point End Pass type
(mag) Time Alt. Az. Time Alt. Az. Time Alt. Az.
21 May 1.6 19:56:46 10° SW 19:59:41 37° SSE 20:02:37 10° E visible
21 May 1.2 21:33:10 10° W 21:36:04 72° WNW 21:36:04 72° WNW visible
22 May 0.9 20:33:08 10° WSW 20:36:15 83° SSE 20:39:08 12° E visible
22 May 3.1 22:09:54 10° W 22:11:20 24° WNW 22:11:20 24° WNW visible
23 May 1.2 21:09:50 10° W 21:12:58 71° N 21:14:11 33° ENE visible
24 May 1.1 20:09:46 10° W 20:12:54 79° N 20:16:02 10° E visible
24 May 1.6 21:46:33 10° W 21:49:04 54° WNW 21:49:04 54° WNW visible
25 May 1.2 20:46:29 10° W 20:49:38 73° N 20:51:41 19° E visible
25 May 3.7 22:23:15 10° W 22:23:52 15° W 22:23:52 15° W visible
26 May 0.9 21:23:10 10° W 21:26:17 73° SSW 21:26:25 71° S visible
27 May 1.0 20:23:06 10° W 20:26:14 84° N 20:28:57 13° E visible
27 May 3.3 21:59:58 10° W 22:01:07 18° WSW 22:01:07 18° WSW visible
28 May 1.4 20:59:46 10° W 21:02:49 49° SSW 21:03:38 37° SSE visible
29 May 1.1 19:59:39 10° W 20:02:48 75° SSW 20:05:55 10° ESE visible
29 May 3.2 21:36:51 10° W 21:38:20 17° SW 21:38:20 17° SW visible
30 May 2.1 20:36:26 10° W 20:39:16 31° SSW 20:40:52 19° SSE visible
